Regional Weather Roundup
Issued by NWS Northern Indiana

Home | Current Version | Previous Version | Text Only | Print | Product List | Glossary On
Versions: 1 2 3 4 5 6 7 8 9 10 11 12 13 14 15 16 17 18 19 20 21 22 23 24 25 26 27 28 29 30 31 32 33 34 35 36 37 38 39 40 41 42 43 44 45 46 47 48 49 50
322
ASUS43 KIWX 150710
RWRIWX

KIWX WEATHER ROUNDUP
NATIONAL WEATHER SERVICE NORTHERN INDIANA
200 AM EST FRI DEC 15 2017

NOTE: "FAIR" INDICATES FEW OR NO CLOUDS BELOW 12,000 FEET WITH NO
SIGNIFICANT WEATHER AND/OR OBSTRUCTIONS TO VISIBILITY.

* THESE STATIONS ARE NOT UNDER NWS QUALITY CONTROL. THEY ALSO MAY NOT
  REPORT WEATHER SUCH AS PRECIPITATION OR FOG.

INZ001>027-150800-
NORTHERN INDIANA

CITY           SKY/WX    TMP DP  RH WIND       PRES   REMARKS
GARY*          CLOUDY    21  13  71 CALM      30.02F
VALPARAISO     CLEAR     15  10  80 CALM      30.00F
MICHIGAN CITY* CLOUDY    19  10  68 SW7       30.00F WCI  10
LAPORTE*       CLOUDY   N/A N/A N/A CALM      30.00F
KNOX*          CLOUDY    16  14  93 SW5       30.02F WCI   9
SOUTH BEND     CLOUDY    15  12  88 SW8       29.99F WCI   4
GOSHEN         MOCLDY    18  11  74 SW9       29.99F WCI   7
MONTICELLO*    PTCLDY    17  11  80 CALM      30.02F
LOGANSPORT*    CLOUDY    21  14  73 SW3       30.02F
ROCHESTER*     CLOUDY    25  18  74 CALM      30.01F
WARSAW*        CLOUDY    21  14  73 W3        30.01F
AUBURN*        CLOUDY    21  14  73 CALM      30.01F
FORT WAYNE     FLURRIES  22  15  75 S8        30.01F WCI  12
HUNTINGTON*    CLOUDY    23  14  68 S3        30.01F
PERU/GRISSOM   MOCLDY    22  15  77 S6        30.00  WCI  14
MARION*        CLOUDY    23  16  76 S8        30.02F WCI  13

$$
INZ028>050-150800-
CENTRAL INDIANA

CITY           SKY/WX    TMP DP  RH WIND       PRES   REMARKS
LAFAYETTE      CLOUDY    20  16  84 W5        30.03F WCI  13
KOKOMO*        MOCLDY    23  16  74 S7        30.02F WCI  15
MUNCIE*        CLOUDY    23  13  65 S7        30.02F WCI  15
INDIANAPOLIS   CLOUDY    24  15  68 S6        30.04F WCI  17

$$
MIZ043>046-050>051-056>058-064>065-071>073-077>080-150800-
SOUTHWEST LOWER MICHIGAN

CITY           SKY/WX    TMP DP  RH WIND       PRES   REMARKS
BATTLE CREEK   CLOUDY    19  14  81 S8        29.96F WCI   9
BENTON HARBOR  CLOUDY    22  14  71 S6        29.97F WCI  14
COLDWATER*     CLOUDY    17  10  74 SW3       29.97F
HILLSDALE*     CLOUDY    14   7  73 S5        29.96S WCI   6
HOLLAND        CLOUDY    21  16  81 S6        29.95F WCI  13
GRAND RAPIDS   CLOUDY    20  17  88 S8        29.94F WCI  10
KALAMAZOO      CLOUDY    20  14  77 S10       29.96F WCI   9
STURGIS*       CLOUDY    16  11  83 S5        29.97F WCI   8
THREE RIVERS*  CLOUDY    16  12  84 SW3       29.98F

$$
OHZ001>008-015>018-024>025-150800-
NORTHWEST OHIO

CITY           SKY/WX    TMP DP  RH WIND       PRES   REMARKS
WAUSEON*         N/A      9   5  85 CALM      30.01F
DEFIANCE       CLOUDY    18  10  71 S3        30.02F
FINDLAY        CLOUDY    14   7  73 S6        30.02F WCI   5
TOLEDO EXPRESS CLOUDY    17   6  62 S7        30.02F WCI   8
TOLEDO METCALF CLOUDY    11   4  73 S5        30.04F WCI   3
LIMA           CLOUDY    16  12  84 S6        30.02F WCI   7

$$
AND FOR LAKE MICHIGAN COASTAL AND OPEN LAKE BUOY OBSERVATIONS

STATION/POSITION TEMP    WIND        PRES    VSBY  WAVE
                 AIR SEA DIR/SP/G                  HT/PER
                 (F)     (DEG/KT/KT) (MB)    (MI)  (FT/S)
CALUMET HARBOR           200/  5/  7 1015.4F
MICHIGAN CITY     22     190/ 12/ 13   N/A
BURNS HARBOR      21     200/  7/ 10 1016.6
SAINT JOSEPH      28     240/  9/ 15 1014.9

$$
&&




USA.gov is the U.S. government's official web portal to all federal, state and local government web resources and services.